Weather in Sale

Morocco     34°03′11″N   6°47′53″W
temp.,
°C
wind,
m/s
gust,
m/s
humid.,
%
clouds,
%
prec.,
mm/h
press.,
hPa
HPBL,
m
28 january, fri
fri2801:00+12e3470100 0.0 102090
04:00+12e235897 0.0 102058
07:00+12se235897 0.0 102065
10:00+15sse225389 0.0 102291
13:00+19nnw11395 0.0 1022625
16:00+20nne54435 0.0 10201241
19:00+16ene575862 0.0 1020139
22:00+14e36590 0.0 1021117
29 january, sat
sat2901:00+13e345812 0.0 102268
04:00+12se226727 0.4 102236
07:00+12se116226 0.4 102235
10:00+14ese23592 0.0 102499
13:00+21e124149 0.0 1024533
16:00+21nnw32415 0.0 1022693
19:00+17nne34587 0.0 102243
22:00+14e236154 0.0 102369
30 january, sun
sun3001:00+13e33610 0.0 102348
04:00+13se12615 0.0 102333
07:00+13s226299 0.0 102354
10:00+15sse11539 0.0 102470
13:00+21nne11402 0.0 1024404
16:00+22nne33391 0.0 1021641
19:00+17ne456045 0.0 102262
22:00+15ene236478 0.0 102439
31 january, mon
mon3101:00+14e226490 0.0 102438
04:00+14e116378 0.0 102422
07:00+13e2268100 0.0 102538
10:00+16sse11567 0.0 102668
13:00+19nnw335256 0.0 1027410
16:00+19nnw44530 0.0 1025467
19:00+15nne34695 0.0 1026108
22:00+12e23740 0.0 102863
1 february, tue
tue101:00+12ese22640 0.0 102743
04:00+11e22610 0.0 102748
07:00+11se22580 0.0 102637
10:00+14ese22490 0.0 102795
13:00+19nne44390 0.0 1027618
16:00+19n54430 0.0 1025614
19:00+14nne45710 0.0 1025119
22:00+12e22760 0.0 102748